Weather History for KDAW - October, 2012

Change the Weather History Date:

Sunday, October 14, 2012

  Actual Average (KSFM) Record (KSFM)
Temperature  
Mean Temperature 47 °F -  
Max Temperature 55 °F 57 °F 80 °F (2000)
Min Temperature 39 °F 36 °F 24 °F (2006)
Degree Days  
Heating Degree Days 18    
Moisture  
Dew Point 47 °F    
Average Humidity 93    
Maximum Humidity 100    
Minimum Humidity 82    
Precipitation  
Precipitation 0.21 in - - ()
Sea Level Pressure  
Sea Level Pressure 30.03 in    
Wind  
Wind Speed 1 mph (South)    
Max Wind Speed 5 mph    
Max Gust Speed -    
Visibility 6 miles    
Events Fog , Rain    
Averages and records for this station are not official NWS values.
T = Trace of Precipitation, MM = Missing Value Source: NWS Daily Summary

Daily Weather History Graph

Daily Weather History Graph

Search for Another Location

Airport or City:

Trip Planner

Search our weather history database for the weather conditions in past years. The results will help you decide how hot, cold, wet, or windy it might be!

Date:

Astronomy

Oct. 14, 2012 Rise Set
Actual Time 6:56 AM EDT 6:01 PM EDT
Civil Twilight 6:28 AM EDT 6:30 PM EDT
Nautical Twilight 5:55 AM EDT 7:03 PM EDT
Astronomical Twilight 5:22 AM EDT 7:36 PM EDT
Moon 5:51 AM EDT (10/14) 5:19 PM EDT (10/14)
Length of Visible Light 12h 02m
Length of Day
11h 04m
Waning Crescent, 1% of the Moon is Illuminated
Oct 14
Waning Crescent
Oct 15
New
Oct 21
First Quarter
Oct 29
Full
Nov 6
Last Quarter

Hourly Weather History & Observations

Time (EDT) Temp. Windchill Dew Point Humidity Pressure Visibility Wind Dir Wind Speed Gust Speed Precip Events Conditions
2:51 AM 41.0 °F - 36.0 °F 82% 30.24 in 10.0 mi Calm Calm - 0.00 in Rain Light Rain
3:51 AM 39.9 °F - 37.9 °F 93% 30.23 in 8.0 mi Calm Calm - 0.03 in Rain Light Rain
4:51 AM 39.9 °F - 37.9 °F 93% 30.19 in 10.0 mi Calm Calm - 0.02 in Rain Light Rain
5:51 AM 39.9 °F 37.8 °F 39.0 °F 97% 30.16 in 8.0 mi South 3.5 mph - 0.01 in Rain Light Rain
6:51 AM 41.0 °F - 39.9 °F 96% 30.15 in 5.0 mi Calm Calm - 0.04 in Rain Light Rain
7:17 AM 42.8 °F 41.1 °F 41.0 °F 93% 30.14 in 5.0 mi South 3.5 mph - 0.02 in Rain Light Rain
7:27 AM 42.8 °F 41.1 °F 41.0 °F 93% 30.13 in 4.0 mi Variable 3.5 mph - 0.03 in Rain Light Rain
7:51 AM 43.0 °F 41.3 °F 41.0 °F 93% 30.13 in 4.0 mi South 3.5 mph - 0.04 in Rain Light Rain
8:51 AM 44.1 °F 42.5 °F 43.0 °F 96% 30.11 in 3.0 mi Variable 3.5 mph - 0.02 in Rain Light Rain
9:01 AM 44.6 °F 43.1 °F 44.6 °F 100% 30.11 in 2.5 mi Variable 3.5 mph - 0.02 in Rain Rain
9:19 AM 44.6 °F 43.1 °F 44.6 °F 100% 30.10 in 4.0 mi Variable 3.5 mph - 0.04 in Rain Light Rain
9:51 AM 46.9 °F - 46.0 °F 97% 30.09 in 10.0 mi Variable 3.5 mph - 0.04 in   Overcast
10:51 AM 50.0 °F - 46.9 °F 89% 30.08 in 10.0 mi Calm Calm - N/A   Overcast
11:35 AM 51.8 °F - 48.2 °F 88% 30.08 in 10.0 mi Variable 3.5 mph - N/A   Overcast
11:51 AM 52.0 °F - 48.9 °F 89% 30.07 in 10.0 mi Calm Calm - N/A   Overcast
12:30 PM 53.6 °F - 48.2 °F 82% 30.07 in 10.0 mi Calm Calm - N/A   Overcast
12:51 PM 53.1 °F - 48.9 °F 86% 30.05 in 10.0 mi Variable 3.5 mph - N/A   Overcast
1:08 PM 53.6 °F - 48.2 °F 82% 30.05 in 10.0 mi Calm Calm - N/A   Overcast
1:51 PM 54.0 °F - 51.1 °F 90% 30.04 in 9.0 mi Calm Calm - 0.01 in Rain Light Rain
2:00 PM 53.6 °F - 51.8 °F 94% 30.03 in 10.0 mi Variable 4.6 mph - 0.00 in Rain Light Rain
2:51 PM 54.0 °F - 52.0 °F 93% 30.01 in 10.0 mi Calm Calm - 0.00 in Rain Light Rain
3:51 PM 55.0 °F - 52.0 °F 89% 30.00 in 10.0 mi Calm Calm - 0.00 in   Overcast
4:19 PM 55.4 °F - 51.8 °F 88% 30.00 in 10.0 mi Calm Calm - N/A   Overcast
4:46 PM 55.4 °F - 51.8 °F 88% 30.00 in 10.0 mi Calm Calm - N/A   Overcast
4:51 PM 55.0 °F - 52.0 °F 89% 30.00 in 10.0 mi Calm Calm - N/A   Overcast
5:51 PM 54.0 °F - 52.0 °F 93% 29.99 in 10.0 mi Calm Calm - N/A   Mostly Cloudy
6:51 PM 54.0 °F - 51.1 °F 90% 29.98 in 10.0 mi Calm Calm - N/A   Mostly Cloudy
7:51 PM 52.0 °F - 51.1 °F 97% 29.97 in 5.0 mi Calm Calm - N/A   Clear
8:35 PM 51.8 °F - 48.2 °F 88% 29.97 in 1.0 mi Calm Calm - N/A   Clear
8:42 PM 51.8 °F - 50.0 °F 94% 29.97 in 3.0 mi Calm Calm - N/A   Clear
8:51 PM 52.0 °F - 50.0 °F 93% 29.97 in 5.0 mi Calm Calm - N/A   Clear
8:57 PM 51.8 °F - 50.0 °F 94% 29.97 in 1.2 mi Calm Calm - N/A   Partly Cloudy
9:04 PM 50.0 °F - 48.2 °F 94% 29.97 in 0.5 mi Calm Calm - N/A Fog Fog
9:09 PM 51.8 °F - 48.2 °F 88% 29.97 in 1.2 mi Calm Calm - N/A   Partly Cloudy
9:17 PM 51.8 °F - 50.0 °F 94% 29.96 in 0.8 mi Calm Calm - N/A   Mist
9:27 PM 48.2 °F - 48.2 °F 100% 29.97 in 1.2 mi Calm Calm - N/A   Partly Cloudy
9:39 PM 50.0 °F - 48.2 °F 94% 29.97 in 0.8 mi Calm Calm - N/A   Mist
9:46 PM 46.4 °F - 46.4 °F 100% 29.96 in 0.2 mi Calm Calm - N/A Fog Fog
9:51 PM 48.0 °F - 46.0 °F 93% 29.96 in 0.2 mi Calm Calm - N/A Fog Fog
10:17 PM 50.0 °F - 48.2 °F 94% 29.95 in 0.5 mi Calm Calm - N/A Fog Fog
10:31 PM 50.0 °F - 48.2 °F 94% 29.95 in 2.0 mi Calm Calm - N/A   Mostly Cloudy
10:37 PM 50.0 °F - 48.2 °F 94% 29.94 in 3.0 mi Calm Calm - N/A   Scattered Clouds
10:51 PM 50.0 °F - 48.9 °F 96% 29.93 in 2.5 mi Calm Calm - N/A   Partly Cloudy
10:59 PM 50.0 °F - 48.2 °F 94% 29.93 in 4.0 mi Calm Calm - N/A   Clear
11:24 PM 50.0 °F - 48.2 °F 94% 29.93 in 2.0 mi Calm Calm - N/A   Clear
11:43 PM 48.2 °F - 48.2 °F 100% 29.92 in 1.2 mi Calm Calm - N/A   Clear
11:51 PM 48.0 °F - 46.0 °F 93% 29.91 in 1.0 mi Calm Calm - N/A   Mist